Location: Dackenheim
(49.5215°N, 8.1854°E)
Time: 15:06:15
(UTC+00:00)

BlueWalker 3 - Pass Details

Date: 24 January 2026
Orbit: 451 x 461 km, 53.2° (Epoch: 16 February)

Event Time Altitude Azimuth Distance (km) Brightness Sun altitude
Rises 17:09:54 0° 219° (SW) 2,448 6.5 -9.8°
Reaches altitude 10° 17:12:08 10° 210° (SSW) 1,578 5.2 -10.1°
Maximum altitude 17:15:24 35° 143° (SE) 745 2.6 -10.6°
Enters shadow 17:17:43 17° 84° (E) 1,240 3.3 -11.0°
